Regional Weather Roundup
Issued by NWS Huntsville, AL

Home | Current Version | Previous Version | Text Only | Print | Product List | Glossary On
Versions: 1 2 3 4 5 6 7 8 9 10 11 12 13 14 15 16 17 18 19 20 21 22 23 24 25 26 27 28
000
ASUS44 KHUN 210910
RWRHUN

WEATHER ROUNDUP FOR THE TENNESSEE VALLEY
NATIONAL WEATHER SERVICE HUNTSVILLE AL
300 AM CST TUE NOV 21 2017

ALZ001>004-211000-
NORTHWEST ALABAMA

CITY           SKY/WX    TMP DP  RH WIND       PRES   REMARKS
COURTLAND HCN    N/A     30 N/A N/A CALM        N/A
RUSSELLVILLE     N/A     30 N/A N/A MISG        N/A
SHOALS AIRPORT CLEAR     33  27  78 SE6       30.09F WCI  28
$$

ALZ005>007-016-211000-
NORTH CENTRAL ALABAMA

CITY           SKY/WX    TMP DP  RH WIND       PRES   REMARKS
DECATUR AP     CLOUDY    32  32 100 CALM      30.10F
HUNTSVILLE AP  CLOUDY    37  33  85 SE5       30.09F WCI  33
MERIDIANVILLE  CLOUDY    34  32  93 CALM      30.10S
REDSTONE ARSN  CLOUDY    38  33  82 CALM      30.09F
VINEMONT AP    FAIR      36  31  84 S5        30.11F WCI  32
$$

ALZ008>010-211000-
NORTHEAST ALABAMA

CITY           SKY/WX    TMP DP  RH WIND       PRES   REMARKS
ALBERTVILLE    CLOUDY    41  37  87 SE3       30.09S
FORT PAYNE     CLOUDY    37  32  81 CALM      30.10F
SCOTTSBORO AP  CLOUDY    34  32  93 CALM      30.12S
SCOTTSBORO HCN   N/A     30 N/A N/A MISG        N/A
VALLEY HEAD      N/A     45 N/A N/A MISG        N/A
$$

TNZ076-096-097-211000-
SOUTHEASTERN MIDDLE TENNESSEE

CITY           SKY/WX    TMP DP  RH WIND       PRES   REMARKS
TULLAHOMA      CLEAR     43  34  70 S7        30.07S
WINCHESTER     CLEAR     41  34  75 CALM      30.09F
$$

...SURROUNDING SITES...

CITY           SKY/WX    TMP DP  RH WIND       PRES   REMARKS
ATLANTA        MOCLDY    44  38  79 E8        30.14F
ANNISTON       CLOUDY    42  36  79 NE6       30.12F
BIRMINGHAM     PTCLDY    39  35  86 CALM      30.12F
CHATTANOOGA    CLOUDY    35  32  88 SW5       30.13F WCI  31
CORINTH        FAIR      30  27  86 SE5       30.05F WCI  25
DALTON         CLOUDY    39  34  81 CALM      30.14F
GADSDEN        CLOUDY    32  32 100 CALM      30.12F
GOLDEN TRNGL   CLEAR     32  29  88 CALM      30.08F
HALEYVILLE     FAIR      33  31  92 S3        30.09F
JACKSON TN     CLOUDY    40  29  64 S8        30.03F WCI  34
MEMPHIS        CLOUDY    38  31  76 S5        30.01S WCI  34
NASHVILLE      CLEAR     37  28  70 CALM      30.06S
OXFORD MS      FAIR      36  30  80 SE6       30.05F WCI  31
ROME           CLOUDY    35  33  92 CALM      30.13F
SAVANNAH       CLEAR     34  30  86 S3        30.04F
SELMER         CLEAR     39  27  60 S8        30.03F WCI  34
TUPELO         CLEAR     36  28  73 S3        30.07R
TUSCALOOSA     CLOUDY    34  33  96 CALM      30.10F
$$

...GULF COAST WEATHER...

CITY           SKY/WX    TMP DP  RH WIND       PRES   REMARKS
GULFPORT       CLOUDY    47  40  76 N3        30.05S
PASCAGOULA     CLOUDY    44  41  89 N3        30.05S
MOBILE         PTCLDY    47  40  76 E5        30.05F
GULF SHORES    MOSUNNY   46  41  82 CALM      30.05F
PENSACOLA      CLOUDY    49  39  68 NE6       30.05F
DESTIN         MOCLDY    56  41  57 N7        30.06F
PANAMA CITY    MOCLDY    52  44  72 N5        30.04F
APPALACHICOLA  CLOUDY    53  52  96 NE7       30.03F
$$





USA.gov is the U.S. government's official web portal to all federal, state and local government web resources and services.